Погода в Кинеле

Россия / Самарская область     53°13′15″N   50°38′03″E
темп.,
°C
ветер,
м/с
пор.,
м/с
влажн.,
%
обл.,
%
осадки,
мм/ч
давл.,
гПа
погр.,
м
19 сентября, вс
вс1901:00+4сз33675 0.0 102329
04:00+3ссз35746 0.0 102470
07:00+3сз347519 0.0 102491
10:00+8ссз345354 0.0 1025886
13:00+11сз44395 0.0 10251362
16:00+12ссз343499 0.0 10241437
19:00+7с224893 0.0 102517
22:00+7ссв224980 0.0 102534
20 сентября, пн
пн2001:00+4всв226211 0.0 102520
04:00+3всв226762 0.0 102620
07:00+3всв336968 0.0 102662
10:00+9в4546100 0.0 1026581
13:00+13в443494 0.0 10251171
16:00+14в4531100 0.0 10241269
19:00+11в3438100 0.0 102490
22:00+10всв4943100 0.0 1024232
21 сентября, вт
вт2101:00+10в51143100 0.0 1024351
04:00+9вюв51049100 0.1 1023431
07:00+7в51164100 0.4 1023433
10:00+8в51260100 0.6 1022419
13:00+10в71251100 0.0 1021466
16:00+11в61142100 0.1 1020498
19:00+10в61154100 0.0 1019384
22:00+11в51153100 0.0 1018384
22 сентября, ср
ср2201:00+10в6125273 0.0 1017337
04:00+10вюв51351100 0.0 1016283
07:00+11вюв61344100 0.0 1015339
10:00+11вюв61269100 0.3 1016322
13:00+18юв81232100 0.0 1016882
16:00+19ююв61032100 0.0 10161380
19:00+13юв61163100 0.3 1019476
22:00+12вюв61270100 0.3 1019460
23 сентября, чт
чт2301:00+12вюв61359100 0.0 1019433
04:00+11вюв61351100 0.0 1019401
07:00+11ююв4954100 0.3 1020474
10:00+11юв2763100 2.8 1022240
13:00+14ююз3471100 0.3 1023389
16:00+15вюв3546100 0.3 1022186
19:00+10юв41182100 0.3 1024549
22:00+11вюв51172100 0.3 1024443